Buffalo, MN

10:06 PM CST on December 06, 2019 (GMT -0600)
Buffalo

Weather History for KCFE - October, 2019

Change the Weather History Date:

Thursday, October 24, 2019

  Actual Average (WUND) Record (WUND)
Temperature  
Mean Temperature 35 °F -  
Max Temperature 43 °F - - (-1)
Min Temperature 27 °F - - (-1)
Degree Days  
Heating Degree Days 30    
Moisture  
Dew Point 25 °F    
Average Humidity 69    
Maximum Humidity 89    
Minimum Humidity 45    
Precipitation  
Precipitation 0.00 in - - ()
Sea Level Pressure  
Sea Level Pressure 30.30 in    
Wind  
Wind Speed - (North)    
Max Wind Speed -    
Max Gust Speed -    
Visibility 10 miles    
Events      
Averages and records for this station are not official NWS values.
T = Trace of Precipitation, MM = Missing Value Source: NWS Daily Summary

Daily Weather History Graph

Daily Weather History Graph

Search for Another Location

Airport or City:

Astronomy

Oct. 24, 2019 Rise Set
Actual Time 7:42 AM CDT 6:15 PM CDT
Civil Twilight 7:12 AM CDT 6:45 PM CDT
Nautical Twilight 6:38 AM CDT 7:19 PM CDT
Astronomical Twilight 6:04 AM CDT 7:53 PM CDT
Moon 2:57 AM CDT (10/24) 4:57 PM CDT (10/24)
Length of Visible Light 11h 32m
Length of Day
10h 32m
Waning Crescent, 16% of the Moon is Illuminated
Oct 24
Waning Crescent
Oct 27
New
Nov 4
First Quarter
Nov 12
Full
Nov 19
Last Quarter

Hourly Weather History & Observations

Time (CDT) Temp. Dew Point Humidity Pressure Visibility Wind Dir Wind Speed Gust Speed Precip Events Conditions
12:15 AM 38.5 °F 30.2 °F 72% 30.17 in 10.0 mi North - - N/A   Overcast
12:35 AM 38.3 °F 30.0 °F 72% 30.18 in 10.0 mi North - - N/A   Overcast
12:55 AM 38.3 °F 29.1 °F 70% 30.18 in 10.0 mi North - - N/A   Overcast
12:56 AM 38.3 °F 29.1 °F 70% 30.18 in 10.0 mi North - - N/A   Overcast
1:16 AM 38.3 °F 28.0 °F 67% 30.18 in 10.0 mi North - - N/A   Overcast
1:35 AM 37.9 °F 27.5 °F 66% 30.19 in 10.0 mi North - - N/A   Overcast
1:55 AM 37.6 °F 26.4 °F 64% 30.19 in 10.0 mi North - - N/A   Overcast
1:56 AM 37.6 °F 26.4 °F 64% 30.19 in 10.0 mi North - - N/A   Overcast
2:15 AM 36.5 °F 23.7 °F 60% 30.19 in 10.0 mi North - - N/A   Scattered Clouds
2:35 AM 35.6 °F 23.4 °F 61% 30.20 in 10.0 mi North - - N/A   Clear
2:36 AM 35.6 °F 23.4 °F 61% 30.20 in 10.0 mi North - - N/A   Clear
2:55 AM 34.9 °F 23.0 °F 62% 30.21 in 10.0 mi North - - N/A   Clear
3:15 AM 34.3 °F 23.5 °F 65% 30.21 in 10.0 mi North - - N/A   Clear
3:16 AM 34.3 °F 23.5 °F 65% 30.21 in 10.0 mi North - - N/A   Clear
3:35 AM 33.8 °F 24.4 °F 69% 30.23 in 10.0 mi North - - N/A   Clear
3:55 AM 33.1 °F 25.0 °F 72% 30.23 in 10.0 mi North - - N/A   Clear
4:15 AM 32.9 °F 25.7 °F 75% 30.24 in 10.0 mi North - - N/A   Clear
4:35 AM 32.2 °F 25.5 °F 76% 30.24 in 10.0 mi North - - N/A   Clear
4:36 AM 32.2 °F 25.5 °F 76% 30.24 in 10.0 mi North - - N/A   Clear
4:55 AM 32.2 °F 25.3 °F 76% 30.25 in 10.0 mi North - - N/A   Clear
4:56 AM 32.0 °F 25.3 °F 76% 30.25 in 10.0 mi North - - N/A   Clear
5:15 AM 32.0 °F 25.7 °F 78% 30.25 in 10.0 mi North - - N/A   Clear
5:35 AM 32.0 °F 25.7 °F 78% 30.26 in 10.0 mi North - - N/A   Clear
6:15 AM 31.6 °F 25.7 °F 79% 30.27 in 10.0 mi North - - N/A   Clear
6:16 AM 31.6 °F 25.7 °F 79% 30.28 in 10.0 mi North - - N/A   Clear
6:35 AM 31.6 °F 26.4 °F 81% 30.29 in 10.0 mi North - - N/A   Clear
6:55 AM 31.3 °F 26.4 °F 82% 30.28 in 10.0 mi North - - N/A   Clear
6:56 AM 31.3 °F 26.4 °F 82% 30.28 in 10.0 mi North - - N/A   Clear
7:35 AM 31.1 °F 26.6 °F 83% 30.29 in 10.0 mi North - - N/A   Clear
7:55 AM 30.7 °F 26.6 °F 85% 30.29 in 10.0 mi North - - N/A   Clear
8:15 AM 31.3 °F 27.1 °F 85% 30.30 in 10.0 mi North - - N/A   Clear
8:35 AM 32.0 °F 27.5 °F 83% 30.31 in 10.0 mi North - - N/A   Clear
8:36 AM 32.0 °F 27.5 °F 83% 30.31 in 10.0 mi North - - N/A   Clear
8:56 AM 32.9 °F 27.3 °F 80% 30.33 in 10.0 mi North - - N/A   Clear
9:15 AM 33.8 °F 26.8 °F 75% 30.33 in 10.0 mi North - - N/A   Clear
9:16 AM 33.8 °F 26.6 °F 75% 30.33 in 10.0 mi North - - N/A   Clear
9:35 AM 34.3 °F 25.9 °F 71% 30.34 in 10.0 mi North - - N/A   Clear
9:36 AM 34.5 °F 26.1 °F 71% 30.34 in 10.0 mi North - - N/A   Clear
9:55 AM 35.6 °F 26.4 °F 69% 30.34 in 10.0 mi North - - N/A   Clear
9:56 AM 35.6 °F 26.4 °F 69% 30.34 in 10.0 mi North - - N/A   Clear
10:15 AM 36.3 °F 25.3 °F 64% 30.34 in 10.0 mi North - - N/A   Clear
10:16 AM 36.1 °F 25.2 °F 64% 30.33 in 10.0 mi North - - N/A   Clear
10:35 AM 37.2 °F 24.8 °F 61% 30.33 in 10.0 mi North - - N/A   Clear
10:55 AM 37.4 °F 23.2 °F 57% 30.34 in 10.0 mi North - - N/A   Clear
10:56 AM 37.4 °F 23.2 °F 57% 30.34 in 10.0 mi North - - N/A   Clear
11:15 AM 37.9 °F 22.5 °F 54% 30.35 in 10.0 mi North - - N/A   Scattered Clouds
11:36 AM 38.8 °F 22.1 °F 51% 30.35 in 10.0 mi North - - N/A   Overcast
12:15 PM 39.2 °F 22.3 °F 51% 30.35 in 10.0 mi North - - N/A   Scattered Clouds
12:16 PM 39.2 °F 22.5 °F 51% 30.35 in 10.0 mi North - - N/A   Scattered Clouds
1:15 PM 40.8 °F 21.7 °F 47% 30.35 in 10.0 mi North - - N/A   Clear
1:35 PM 41.0 °F 21.6 °F 46% 30.35 in 10.0 mi North - - N/A   Clear
1:55 PM 41.5 °F 22.5 °F 47% 30.34 in 10.0 mi North - - N/A   Scattered Clouds
1:56 PM 41.7 °F 22.6 °F 47% 30.34 in 10.0 mi North - - N/A   Scattered Clouds
2:15 PM 41.9 °F 23.0 °F 47% 30.34 in 10.0 mi North - - N/A   Scattered Clouds
2:55 PM 43.0 °F 24.4 °F 48% 30.33 in 10.0 mi North - - N/A   Mostly Cloudy
3:15 PM 41.2 °F 23.4 °F 49% 30.33 in 10.0 mi North - - N/A   Scattered Clouds
3:35 PM 43.0 °F 23.5 °F 46% 30.33 in 10.0 mi North - - N/A   Scattered Clouds
3:55 PM 43.2 °F 23.4 °F 46% 30.32 in 10.0 mi North - - N/A   Scattered Clouds
4:15 PM 43.0 °F 22.6 °F 45% 30.33 in 10.0 mi North - - N/A   Scattered Clouds
4:35 PM 42.8 °F 23.7 °F 47% 30.32 in 10.0 mi North - - N/A   Clear
4:55 PM 42.8 °F 24.6 °F 49% 30.32 in 10.0 mi North - - N/A   Clear
5:15 PM 41.9 °F 23.4 °F 48% 30.32 in 10.0 mi North - - N/A   Clear
5:35 PM 41.2 °F 22.3 °F 47% 30.32 in 10.0 mi North - - N/A   Clear
5:55 PM 40.6 °F 23.9 °F 51% 30.32 in 10.0 mi North - - N/A   Clear
6:15 PM 39.4 °F 23.9 °F 54% 30.32 in 10.0 mi North - - N/A   Clear
6:35 PM 38.7 °F 24.3 °F 56% 30.31 in 10.0 mi North - - N/A   Clear
6:55 PM 36.9 °F 24.6 °F 61% 30.32 in 10.0 mi North - - N/A   Clear
7:15 PM 35.4 °F 24.4 °F 64% 30.32 in 10.0 mi North - - N/A   Clear
7:35 PM 34.0 °F 26.1 °F 73% 30.33 in 10.0 mi North - - N/A   Clear
7:55 PM 32.4 °F 27.0 °F 80% 30.33 in 10.0 mi North - - N/A   Clear
7:56 PM 32.4 °F 26.8 °F 80% 30.33 in 10.0 mi North - - N/A   Clear
8:35 PM 30.7 °F 26.2 °F 83% 30.34 in 10.0 mi North - - N/A   Clear
8:36 PM 30.9 °F 26.4 °F 83% 30.34 in 10.0 mi North - - N/A   Clear
8:55 PM 30.7 °F 26.4 °F 84% 30.34 in 10.0 mi North - - N/A   Clear
9:15 PM 30.7 °F 25.7 °F 82% 30.34 in 10.0 mi North - - N/A   Clear
9:16 PM 30.6 °F 25.7 °F 82% 30.34 in 10.0 mi North - - N/A   Clear
9:35 PM 30.0 °F 25.5 °F 83% 30.35 in 10.0 mi North - - N/A   Clear
9:55 PM 30.4 °F 25.5 °F 82% 30.35 in 10.0 mi North - - N/A   Clear
10:15 PM 29.7 °F 24.8 °F 82% 30.35 in 10.0 mi North - - N/A   Clear
10:35 PM 28.8 °F 24.8 °F 85% 30.35 in 10.0 mi North - - N/A   Clear
10:36 PM 28.8 °F 24.8 °F 85% 30.35 in 10.0 mi North - - N/A   Clear
10:55 PM 28.4 °F 24.8 °F 86% 30.35 in 10.0 mi North - - N/A   Clear
11:15 PM 28.4 °F 25.0 °F 87% 30.35 in 10.0 mi North - - N/A   Clear
11:16 PM 28.4 °F 25.0 °F 87% 30.34 in 10.0 mi North - - N/A   Clear
11:35 PM 28.0 °F 24.8 °F 88% 30.34 in 10.0 mi North - - N/A   Clear
11:55 PM 27.5 °F 24.6 °F 89% 30.34 in 10.0 mi North - - N/A   Clear
11:56 PM 27.5 °F 24.6 °F 89% 30.34 in 10.0 mi North - - N/A   Clear